Regional Weather Roundup
Issued by NWS

Home | Current Version | Previous Version | Graphics & Text | Print | Product List | Glossary On
Versions: 1 2 3 4 5 6 7 8 9 10 11 12 13 14 15 16 17 18 19 20 21 22 23 24 25 26 27
000
ASUS45 KCYS 220610
RWRWY

WYOMING REGIONAL WEATHER ROUNDUP
NATIONAL WEATHER SERVICE CHEYENNE WY
1100 PM MST TUE NOV 21 2017

NOTE:  "FAIR" INDICATES FEW OR NO CLOUDS BELOW 12,000 FEET
WITH NO SIGNIFICANT WEATHER AND/OR OBSTRUCTIONS TO VISIBILITY.

WYZ001-220700-
YELLOWSTONE NATIONAL PARK

CITY           SKY/WX    TMP DP  RH WIND       PRES   REMARKS
LK YELLOWSTONE   N/A     36  35  96 VRB5      30.37R WCI  32
6HR MIN TEMP:  32; 6HR MAX TEMP:  36; 6HR PCP:  0.05;

W YELLOWSTONE  NOT AVBL

$$
WYZ002>013-054>058-071-098>099-220700-
NORTHERN WYOMING

CITY           SKY/WX    TMP DP  RH WIND       PRES   REMARKS
JACKSON        CLOUDY    40  38  93 CALM      30.34F
CODY           FAIR      50  33  52 SE13      30.16F
GREYBULL       FAIR      35  30  82 CALM      30.18F
6HR MIN TEMP:  35; 6HR MAX TEMP:  40;

WORLAND        FAIR      31  29  92 S6        30.19F WCI  25
6HR MIN TEMP:  31; 6HR MAX TEMP:  38;

SHERIDAN       MOCLDY    34  33  96 SE3       30.10F
6HR MIN TEMP:  31; 6HR MAX TEMP:  34;

BUFFALO        FAIR      42  18  37 W5        30.14S
6HR MIN TEMP:  33; 6HR MAX TEMP:  46;

GILLETTE       FAIR      44  26  49 SW14      30.13R
6HR MIN TEMP:  28; 6HR MAX TEMP:  44;

HULETT         FAIR      39  28  65 SW10      30.13F WCI  32
NEWCASTLE      FAIR      28  23  80 NW3       30.19S

$$
WYZ014>020-022>026-101>103-220700-
CENTRAL WYOMING

CITY           SKY/WX    TMP DP  RH WIND       PRES   REMARKS
BIG PINEY      CLOUDY    34  32  92 CALM      30.39S
6HR MIN TEMP:  30; 6HR MAX TEMP:  38;

PINEDALE       CLOUDY    34  32  93 CALM      30.41R
DUBOIS         MOCLDY    39  32  75 NW16G23   30.26F WCI  30
LANDER         FAIR      42  30  62 NW8       30.24R
6HR MIN TEMP:  38; 6HR MAX TEMP:  46;

RIVERTON       FAIR      44  32  62 W12       30.23R
6HR MIN TEMP:  35; 6HR MAX TEMP:  45;

CASPER         CLOUDY    46  32  58 SW20      30.22S
6HR MIN TEMP:  37; 6HR MAX TEMP:  46;

DOUGLAS        FAIR      32  29  88 CALM      30.21S
6HR MIN TEMP:  29; 6HR MAX TEMP:  36;


$$
WYZ021-027>030-104>119-220700-
SOUTHERN WYOMING

CITY           SKY/WX    TMP DP  RH WIND       PRES   REMARKS
EVANSTON       CLOUDY    41  37  86 SW9       30.44R
6HR MIN TEMP:  38; 6HR MAX TEMP:  44;

KEMMERER       CLOUDY    37  34  87 W3        30.43S
FORT BRIDGER   MOCLDY    43  36  77 SW16G22   30.45S
ROCK SPRINGS   MOCLDY    42  34  73 SW20      30.39F
6HR MIN TEMP:  40; 6HR MAX TEMP:  43;

DIXON          MOCLDY    37  33  87 CALM      30.44F
RAWLINS        LGT RAIN  42  34  73 W26G33    30.35F
6HR MIN TEMP:  41; 6HR MAX TEMP:  43; 6HR PCP: TRACE;

SARATOGA       CLOUDY    43  32  65 SW12G21   30.38F
LARAMIE        FAIR      39  30  70 SW14      30.30S WCI  31
6HR MIN TEMP:  29; 6HR MAX TEMP:  39;

CHEYENNE       FAIR      33  32  96 W7        30.26R WCI  27
6HR MIN TEMP:  33; 6HR MAX TEMP:  36;

TORRINGTON     FAIR      33  28  81 W3        30.19F
6HR MIN TEMP:  30; 6HR MAX TEMP:  41;

PINE BLUFFS    FAIR      32  32 100 MISG      30.26S

$$




USA.gov is the U.S. government's official web portal to all federal, state and local government web resources and services.